STARLINK-1241 (45195 NORAD) Tracking and Keplerian Element Data

This shows tracking and keplerian element data for the satellite.

Feedback or suggestion? Click here.




ElementValue
Catalog45195
NameSTARLINK-1241
Epoch Orbit2240
Epoch Day193.91667824
Epoch Year2020
RAAN324.7172
Inclination53.0001
Eccentricity0.000132
Argument of Perigee103.8399
Mean Anonmoly33.0252
Mean Motion15.05611639
Decay Rate-0.00051493
L11 45195U 20012T 20193.91667824 -.00051493 00000-0 -35376-2 0 9997
L22 45195 53.0001 324.7172 0001320 103.8399 33.0252 15.05611639 22400

Live tracking and technical data element details for STARLINK-1241 (NORAD 45195). STARLINK-1241 can be tracked NOW for your location showing map with azimuth and elevation plus other details from your city location.

Track the satellite on the map from your city or location and see movement details for azimuth, elevation, latitude, longitude, range, height, and movement on the map or in text.







IsCatalogInMostPopularTable: catalog: 45195, numindb: 27
Update: records affected: 1



GetName: 45195 STARLINK-1241

Hit Count: updated at: Mon, 13 Jul 2020 05:37:57 GMT